{"data":{"norad_id":68625,"intl_designator":"2026-073Z","name":"STARLINK-37249","alt_names":[],"object_type":"PAYLOAD","status":"ACTIVE","operator":null,"country":"US","launch_date":"2026-04-07","launch_site_code":"AFWTR","launch_vehicle":null,"mission":null,"orbit_class":"UNKNOWN","rcs_meters":null,"size_class":null,"mass_kg":null,"dimensions":null,"purposes":["comms"],"wikipedia_slug":null,"has_3d_model":false,"image_url":null,"decayed_at":null,"tle_current":{"epoch":"2026-05-25T04:00:03.998880Z","epoch_age_seconds":57743,"freshness":"FRESH","line1":"1 68625U 26073Z   26145.16671295 -.02133477  00000+0 -34051-1 0  9992","line2":"2 68625  97.2850 344.7230 0002037  80.8462  24.4823 15.56396418  5908","mean_motion":15.56396418,"eccentricity":0.0002037,"inclination_deg":97.285,"raan_deg":344.723,"arg_perigee_deg":80.8462,"mean_anomaly_deg":24.4823,"bstar":-0.034051,"rev_number":590,"period_min":92.521415710429,"perigee_km":396.71613111616,"apogee_km":399.47676862363,"semimajor_km":6776.2334498699,"source":"CELESTRAK","updated_at":"2026-05-25T13:38:21.990324Z"}}}